Location: Unspecified
(41.1637°N, 24.2901°E)
Time: 12:16:33
(UTC+02:00)

ISS - Pass Details

Date: 10 May 2026
Orbit: 414 x 424 km, 51.6° (Epoch: 12 May)

Event Time Altitude Azimuth Distance (km) Brightness Sun altitude
Exits shadow 02:42:29 11° 118° (ESE) 1,463 -0.9 -22.5°
Drops below altitude 10° 02:42:37 10° 118° (ESE) 1,515 -0.8 -22.5°
Sets 02:44:40 0° 121° (ESE) 2,356 0.1 -22.3°
